STARLINK-32605, 61921

Orbit data source: Space-Track

STARLINK-32605, 61921 is a payload satellite owned by SpaceX/Seattle (US) in LEO that was launched on Mon, 11 Nov 2024 UTC via an FALCON 9 launch vehicle from the Air Force Eastern Test Range (AFETR). Payloads include a variety of satellites, spacecraft, and rockets equipped with specific instruments for various scientific and technological missions. These include communications satellites like Starlink; space stations such as the ISS; scientific satellites like the Hubble; Earth observation satellites from companies like Planet Labs, Umbra, and HawkEye 360; GPS; miniature CubeSats for education and research; and military/defense satellites.

Loading next visibility...
STARLINK-32605 details
Identifier
61921, 2024-207K
Orbit
LEO
Last TLE update7 hours ago
Origin
Flag of USSpaceX/Seattle (US)
ManufacturerSpaceX/Seattle
MissionOperational spacecraft
Bus & MotorSTARLINK V2M, Unknown motor
Mass730 kg wet, ~700 kg dry
Launch date (UTC)
2024-11-11 (1 week ago)
Launch vehicle
FALCON 9
Launch site
Air Force Eastern Test Range (AFETR)
Object type
Payload
Rocket body
Debris
Shape & HBRUnknown
Radar Cross SectionRCS unknown

Expand to show TLE details & history

TLE from 7 hours ago
0 STARLINK-32605
1 61921U 24207K   24326.16667824 -.00728782  00000-0 -24862-2 0  9991
2 61921  43.0029  92.9191 0001974 270.5396 247.2122 15.90398760  2687
Epoch: 2024-11-21T04:00Z
Definitive object data (Epoch: 2024-11-21T04:00:00.999Z)
Latitude15.01306°
Longitude135.6472°
Altitude300.727 km
Speed7.73 km/s
True Right ascension17h 05m 12s
True Declination14° 55' 17"
Sunlit
Object was in daylight at TLE epoch
Visualization TLE readout
Latitude37.38657°
Longitude95.79256°
Altitude305.702 km
Speed7.729 km/s
Apparent Right ascension17h 16m 16s
Apparent Declination0° 15' 60"
Sunlit
Object is in daylight
Visualization observer readout
Local Sidereal Time08:25:28
Azimuth59.576° ENE
Elevation-31.541°
Doppler factor1
Orbital elements
Apogee altitude304.482 km
Perigee altitude301.845 km
Semi-major axis6,681.301 km
Eccentricity0.0001974
Inclination43.0029°
RAAN92.9191°
Arg. of periapsis270.5396°
True anomaly247.19135°
Mean anomaly247.2122°
Eccentric anomaly247.20177°
Mean motion3.97422 °/min
BSTAR-0.0024862
Orbital period90.58 mins
Loading maneuver chart data...
Loading historical data...
Loading historical data...
Loading historical data...
Loading historical data...
Loading historical data...
Loading historical data...
Loading historical data...

STARLINK-32605 Visibility forecast

Observer location: undefined°, undefined

Span
Click to sort rows by Start time (UTC) header in descending order
Start Az.
Max El. time (UTC)
Max El. Az.
Max El.
End time (UTC)
End Az.
4 mins2024-11-21 12:37:07.298Z228.929° WSW2024-11-21 12:39:07.298Z155.763° SSE36.713°2024-11-21 12:41:07.298Z82.674° E
|